This demonstration page uses our WeatherBlox Daily Observations layout. Learn more.

Left ArrowRight Arrow

Hourly Observations for December 28, 2016

Temp ( °F °C ) Dew Point ( °F °C ) Humidity (%) Winds ( mph kmh ) Pressure ( in mb ) Visibility ( mi km ) Precip ( " mm )
12:53 am 00:53 Clear 26 -3.3 19 -7.2 75 75 SW 23 37 29.80 1009 10 16 0.00 0.00
1:53 am 01:53 Clear 22 -5.6 16 -8.9 78 78 SW 16 26 29.81 1009 10 16 0.00 0.00
2:53 am 02:53 Clear 24 -4.4 17 -8.3 75 75 SW 21 33 29.81 1010 10 16 0.00 0.00
3:53 am 03:53 Clear 26 -3.3 17 -8.3 69 69 SW 21 33 29.81 1010 10 16 0.00 0.00
4:53 am 04:53 Partly Cloudy 27 -2.8 18 -7.8 69 69 SW 12 19 29.84 1011 10 16 0.00 0.00
5:53 am 05:53 Partly Cloudy 28 -2.2 19 -7.2 69 69 SW 13 20 29.87 1011 10 16 0.00 0.00
6:53 am 06:53 Cloudy 29 -1.7 20 -6.7 69 69 WSW 21 33 29.88 1012 10 16 0.00 0.00
7:53 am 07:53 Cloudy 28 -2.2 20 -6.7 72 72 WSW 20 31 29.91 1013 10 16 0.00 0.00
8:53 am 08:53 Partly Cloudy 27 -2.8 17 -8.3 66 66 W 25 41 29.95 1014 10 16 0.00 0.00
9:53 am 09:53 Mostly Sunny 28 -2.2 17 -8.3 63 63 W 22 35 29.99 1016 10 16 0.00 0.00
10:53 am 10:53 Sunny 32 0 17 -8.3 54 54 W 25 41 30.01 1016 10 16 0.00 0.00
11:53 am 11:53 Sunny 33 0.6 18 -7.8 54 54 W 25 41 30.03 1017 10 16 0.00 0.00
12:53 pm 12:53 Sunny 34 1.1 18 -7.8 52 52 W 23 37 30.05 1018 10 16 0.00 0.00
1:53 pm 13:53 Sunny 34 1.1 19 -7.2 54 54 W 22 35 30.08 1019 10 16 0.00 0.00
2:53 pm 14:53 Sunny 34 1.1 18 -7.8 52 52 W 25 41 30.10 1019 10 16 0.00 0.00
3:53 pm 15:53 Mostly Sunny 32 0 18 -7.8 56 56 W 25 41 30.13 1020 10 16 0.00 0.00
4:53 pm 16:53 Clear 30 -1.1 17 -8.3 58 58 W 20 31 30.16 1021 10 16 0.00 0.00
5:53 pm 17:53 Mostly Clear 29 -1.7 16 -8.9 58 58 W 18 30 30.19 1022 10 16 0.00 0.00
6:53 pm 18:53 Clear 24 -4.4 15 -9.4 68 68 WSW 10 17 30.22 1023 10 16 0.00 0.00
7:53 pm 19:53 Mostly Clear 27 -2.8 15 -9.4 61 61 W 22 35 30.24 1024 10 16 0.00 0.00
8:53 pm 20:53 Clear 27 -2.8 15 -9.4 61 61 W 22 35 30.26 1025 10 16 0.00 0.00
9:53 pm 21:53 Clear 28 -2.2 16 -8.9 60 60 W 24 39 30.27 1025 10 16 0.00 0.00
10:53 pm 22:53 Clear 27 -2.8 16 -8.9 63 63 WSW 16 26 30.30 1026 10 16 0.00 0.00
11:53 pm 23:53 Clear 20 -6.7 13 -10.6 74 74 SW 10 17 30.33 1027 10 16 0.00 0.00

Powered by AerisWeather